• MPC Preparation (Info)

  • MPEC 2016-L87 : 2016 LP10

    The following Minor Planet Electronic Circular may be linked-to from your own Web pages, but must not otherwise be redistributed electronically.

    A form allowing access to any MPEC is at the bottom of this page.


    Read MPEC 2016-L86 Read MPEC 2016-L88


    M.P.E.C. 2016-L87                                Issued 2016 June 10, 00:08 UT
    
         The Minor Planet Electronic Circulars contain information on unusual
             minor planets and routine data on comets.  They are published
        on behalf of Division F of the International Astronomical Union by the
              Minor Planet Center, Smithsonian Astrophysical Observatory,
                              Cambridge, MA 02138, U.S.A.
    
                 Prepared using the Tamkin Foundation Computer Network
    
                                  MPC@CFA.HARVARD.EDU
                URL https://www.minorplanetcenter.net/    ISSN 1523-6714
    
                                       2016 LP10
    
    Observations:
         K16L10P* C2016 06 08.43511 16 03 09.653-19 23 21.24         20.9 wLEL087F51
         K16L10P  C2016 06 08.44646 16 03 01.243-19 23 05.33         20.6 wLEL087F51
         K16L10P  C2016 06 08.45619 16 02 53.991-19 22 50.30         20.7 wLEL087F51
         K16L10P  C2016 06 08.46591 16 02 46.692-19 22 34.09         20.4 wLEL087F51
         K16L10P HC2016 06 09.22099 15 50 06.19 -18 55 56.7          19.6 VoEL087691
         K16L10P HC2016 06 09.22225 15 50 02.28 -18 55 50.6          18.5 VoEL087691
         K16L10P HC2016 06 09.22354 15 49 58.15 -18 55 43.8          17.8 VoEL087691
         K16L10P HC2016 06 09.22612 15 49 50.01 -18 55 30.2          19.0 VoEL087691
         K16L10P HC2016 06 09.22733 15 49 46.06 -18 55 23.6          18.8 VoEL087691
         K16L10P HC2016 06 09.23037 15 49 36.29 -18 55 07.6          18.9 VoEL087691
         K16L10P HC2016 06 09.35487 15 40 58.71 -18 36 25.9          19.2 VoEL087691
         K16L10P HC2016 06 09.35612 15 40 52.15 -18 36 08.9          19.1 VoEL087691
         K16L10P HC2016 06 09.35741 15 40 45.50 -18 35 52.8                oEL087691
    
    Observer details:
    691 Steward Observatory, Kitt Peak.  Observer M. T. Read.  0.9-m f/3 reflector
        + CCD.
    F51 Pan-STARRS 1, Haleakala.  Observers B. Gibson, T. Goggia, N. Primak,
        A. Schultz, M. Willman.  Measurers K. Chambers, S. Chastel, L. Denneau,
        H. Flewelling, M. Huber, E. Lilly, E. Magnier, R. Wainscoat, C. Waters,
        R. Weryk.  1.8-m Ritchey-Chretien + CCD.
    
    Orbital elements:
    2016 LP10                                                Earth MOID = 0.0000 AU
    Epoch 2016 July 31.0 TT = JDT 2457600.5                 MPC
    M   2.79383              (2000.0)            P               Q
    n   0.28509187     Peri.  241.34509     +0.77309950     +0.63418129
    a   2.2863681      Node    79.29325     -0.57779937     +0.71158825
    e   0.6473941      Incl.    0.66805     -0.26165827     +0.30241735
    P   3.46           H   29.3           G   0.15           U   6
    Residuals in seconds of arc
    160608 F51  0.1-  0.1+    160609 691  0.3+  0.2-    160609 691  0.7-  0.6+
    160608 F51  0.0   0.1-    160609 691  0.5-  0.1-    160609 691  0.9-  0.7+
    160608 F51  0.1+  0.1-    160609 691  0.4+  0.0     160609 691  1.2+  0.9-
    160608 F51  0.1-  0.2+    160609 691  0.6-  0.1+
    160609 691  0.4-  0.1+    160609 691  0.1+  0.3-
    
    Ephemeris:
    2016 LP10                a,e,i = 2.29, 0.65, 1                   q = 0.8062
    Date    TT    R. A. (2000) Decl.     Delta      r     Elong.  Phase     V
    2016 05 11    16 12 40.4 -19 50 03   0.2865  1.2895   165.6    11.2    27.8
    ...
    2016 05 26    16 13 00.0 -19 44 58   0.1353  1.1483   178.6     1.2    25.4
    ...
    2016 06 03    16 11 29.9 -19 39 13   0.06115 1.0750   171.8     7.7    23.9
    ...
    2016 06 09    15 56 22.2 -18 54 26   0.0069801.0218   162.5    17.4    19.5
    2016 06 10    04 58 32.3 +21 24 15   0.0021161.0132     3.8   176.2
    2016 06 11    04 12 54.7 +19 42 47   0.01107 1.0047    15.4   164.4    32.3
    ...
    2016 06 17    04 04 37.5 +19 19 50   0.06526 0.9563    23.1   155.3    32.9
    ...
    2016 06 25    04 06 14.5 +19 26 07   0.1394  0.8990    30.4   145.1    32.4
    ...
    2016 07 10    04 18 40.2 +20 05 21   0.2875  0.8244    41.7   124.9    31.4
    
    A. U. Tomatic                (C) Copyright 2016 MPC           M.P.E.C. 2016-L87
    

    Read MPEC 2016-L86 Read MPEC 2016-L88


    MPEC number:

    Enter an MPEC number in one of the following forms:

    • 1997-B01 (the full form)
    • J97B01 (the packed version of the full form)
    • B01 (the abbreviated form)